Zurück zum Katalog

FENGYUN 1C DEB

AktivPO
NORAD 37694·DEBRIS·🇨🇳 China

Gestartet May 10, 1999 von Taiyuan Satellite Launch Center

Loading…

Nächste Überflüge (nächste 24 Stunden)

TLE

AktuellSource: Space-Track

Epoche: Sep 13, 2026, 08:34 UTC

1 37694U 99025ELK 26256.35733947  .00001985  00000-0  88299-3 0  9998
2 37694  98.1836 307.7623 0144075  13.5577  46.4860 14.18510330555956

Verfolge FENGYUN 1C DEB in Echtzeit mit AllMySat

Download on the App Store